AFR17SW TFFF-SOCA

Flight info

Callsign AFR17SW
Flight time 1h 53m
Altitude 23000
Route BORUS2R BORUS A555 BGI/N0451F350 UA555 TRAPP/N0451F370 UA555 BUXEX UA247 SILAT
Aircraft A320/M-SDE3FGHIRWY/LB1

Departure

Time 2026-05-01 11:51
Airport Martinique Aimé Césaire International Airport (TFFF)

Arrival

Time 2026-05-01 13:45
Airport Cayenne – Félix Eboué Airport (SOCA)
Time Latitude Longitude Altitude Speed Heading
2026-05-01 11:16 14.59471 -61.00029 13 ft 0 kts 23°
2026-05-01 11:41 14.59465 -61.00032 13 ft 4 kts 23°
2026-05-01 11:41 14.59440 -61.00043 15 ft 4 kts 23°
2026-05-01 11:41 14.59415 -61.00055 15 ft 4 kts 28°
2026-05-01 11:42 14.59393 -61.00070 12 ft 4 kts 52°
2026-05-01 11:42 14.59386 -61.00091 12 ft 4 kts 91°
2026-05-01 11:42 14.59391 -61.00117 12 ft 4 kts 116°
2026-05-01 11:42 14.59402 -61.00139 12 ft 1 kts 115°
2026-05-01 11:43 14.59402 -61.00140 12 ft 0 kts 114°
2026-05-01 11:45 14.59396 -61.00125 14 ft 6 kts 114°
2026-05-01 11:45 14.59376 -61.00071 12 ft 8 kts 110°
2026-05-01 11:45 14.59344 -61.00044 12 ft 5 kts 163°
2026-05-01 11:46 14.59315 -61.00038 12 ft 4 kts 169°
2026-05-01 11:46 14.59293 -61.00034 12 ft 3 kts 169°
2026-05-01 11:46 14.59271 -61.00030 12 ft 6 kts 170°
2026-05-01 11:46 14.59199 -61.00018 11 ft 8 kts 172°
2026-05-01 11:47 14.59158 -61.00038 11 ft 8 kts 246°
2026-05-01 11:47 14.59141 -61.00120 10 ft 13 kts 260°
2026-05-01 11:47 14.59121 -61.00236 10 ft 20 kts 259°
2026-05-01 11:47 14.59092 -61.00402 9 ft 28 kts 259°
2026-05-01 11:48 14.59053 -61.00628 10 ft 35 kts 260°
2026-05-01 11:48 14.59007 -61.00891 12 ft 36 kts 260°
2026-05-01 11:48 14.58964 -61.01142 13 ft 36 kts 260°
2026-05-01 11:48 14.58920 -61.01394 12 ft 35 kts 260°
2026-05-01 11:49 14.58880 -61.01629 10 ft 22 kts 260°
2026-05-01 11:49 14.58883 -61.01750 10 ft 10 kts 298°
2026-05-01 11:49 14.58898 -61.01807 8 ft 8 kts 242°
2026-05-01 11:49 14.58853 -61.01809 8 ft 6 kts 121°
2026-05-01 11:50 14.58855 -61.01783 8 ft 0 kts 82°
2026-05-01 11:50 14.58863 -61.01726 8 ft 34 kts 80°
2026-05-01 11:51 14.58949 -61.01233 13 ft 102 kts 80°
2026-05-01 11:51 14.59108 -61.00311 10 ft 156 kts 80°
2026-05-01 11:51 14.59318 -60.99091 285 ft 176 kts 80°
2026-05-01 11:51 14.59540 -60.97867 1044 ft 171 kts 81°
2026-05-01 11:52 14.59759 -60.96665 1781 ft 171 kts 80°
2026-05-01 11:52 14.59974 -60.95404 2137 ft 188 kts 82°
2026-05-01 11:52 14.60208 -60.93985 2373 ft 214 kts 81°
2026-05-01 11:52 14.60471 -60.92389 2719 ft 237 kts 81°
2026-05-01 11:53 14.60758 -60.90655 3298 ft 250 kts 82°
2026-05-01 11:53 14.60704 -60.88886 4097 ft 255 kts 109°
2026-05-01 11:53 14.59694 -60.87372 4949 ft 262 kts 135°
2026-05-01 11:53 14.58232 -60.86220 5765 ft 268 kts 144°
2026-05-01 11:54 14.56622 -60.85193 6499 ft 275 kts 147°
2026-05-01 11:54 14.54965 -60.84164 7184 ft 280 kts 146°
2026-05-01 11:54 14.53306 -60.83086 7895 ft 283 kts 144°
2026-05-01 11:54 14.51659 -60.81957 8610 ft 286 kts 143°
2026-05-01 11:55 14.50014 -60.80778 9294 ft 289 kts 143°
2026-05-01 11:55 14.48362 -60.79560 9937 ft 294 kts 142°
2026-05-01 11:55 14.46680 -60.78301 10332 ft 308 kts 142°
2026-05-01 11:55 14.44888 -60.76946 10467 ft 331 kts 142°
2026-05-01 11:56 14.43640 -60.75999 10633 ft 341 kts 142°
2026-05-01 11:56 14.41709 -60.74536 11129 ft 347 kts 143°
2026-05-01 11:56 14.39745 -60.73049 11717 ft 351 kts 143°
2026-05-01 11:56 14.37761 -60.71554 12327 ft 354 kts 143°
2026-05-01 11:57 14.35763 -60.70051 12911 ft 357 kts 144°
2026-05-01 11:57 14.33747 -60.68538 13553 ft 359 kts 144°
2026-05-01 11:57 14.31722 -60.67018 14145 ft 360 kts 144°
2026-05-01 11:57 14.29687 -60.65489 14664 ft 363 kts 145°
2026-05-01 11:58 14.27633 -60.63944 15153 ft 367 kts 144°
2026-05-01 11:58 14.25562 -60.62385 15670 ft 370 kts 145°
2026-05-01 11:58 14.21407 -60.59259 16698 ft 375 kts 146°
2026-05-01 11:59 14.19287 -60.57667 17183 ft 378 kts 146°
2026-05-01 11:59 14.17152 -60.56063 17672 ft 381 kts 146°
2026-05-01 11:59 14.15004 -60.54451 18155 ft 384 kts 146°
2026-05-01 12:00 14.10642 -60.51178 18956 ft 392 kts 146°
2026-05-01 12:00 14.08430 -60.49518 19360 ft 395 kts 145°
2026-05-01 12:00 14.04025 -60.46050 20165 ft 404 kts 138°
2026-05-01 12:01 14.02009 -60.44011 20560 ft 408 kts 137°
2026-05-01 12:01 13.99985 -60.41949 20969 ft 411 kts 137°
2026-05-01 12:01 13.97946 -60.39871 21407 ft 413 kts 137°
2026-05-01 12:01 13.95894 -60.37782 21819 ft 416 kts 137°
2026-05-01 12:02 13.93821 -60.35678 22225 ft 419 kts 137°
2026-05-01 12:02 13.91733 -60.33560 22609 ft 423 kts 137°
2026-05-01 12:02 13.89634 -60.31427 22931 ft 426 kts 137°
2026-05-01 12:02 13.87548 -60.29308 22992 ft 427 kts 137°
2026-05-01 12:03 13.85437 -60.27161 23011 ft 427 kts 137°
2026-05-01 12:03 13.83329 -60.25019 23013 ft 426 kts 137°
2026-05-01 12:03 13.81213 -60.22870 23013 ft 426 kts 137°
2026-05-01 12:03 13.79102 -60.20727 23012 ft 426 kts 137°
2026-05-01 12:04 13.76992 -60.18584 23006 ft 426 kts 137°
2026-05-01 12:04 13.74880 -60.16439 23013 ft 426 kts 137°
2026-05-01 12:04 13.72769 -60.14295 23014 ft 427 kts 137°
2026-05-01 12:04 13.70654 -60.12149 23015 ft 427 kts 137°
2026-05-01 12:05 13.68544 -60.10007 23017 ft 427 kts 137°
2026-05-01 12:05 13.64337 -60.05745 22998 ft 427 kts 137°
2026-05-01 12:05 13.62220 -60.03599 23014 ft 426 kts 137°
2026-05-01 12:06 13.60112 -60.01464 23013 ft 425 kts 137°
2026-05-01 12:06 13.58003 -59.99332 23013 ft 425 kts 137°
2026-05-01 12:06 13.55896 -59.97206 23013 ft 425 kts 137°
2026-05-01 12:06 13.53787 -59.95078 23013 ft 425 kts 137°
2026-05-01 12:07 13.51676 -59.92947 23007 ft 425 kts 137°
2026-05-01 12:07 13.49571 -59.90817 23007 ft 425 kts 137°
2026-05-01 12:07 13.47463 -59.88682 23007 ft 425 kts 137°
2026-05-01 12:07 13.45357 -59.86547 23007 ft 426 kts 137°
2026-05-01 12:08 13.43245 -59.84409 23007 ft 426 kts 137°
2026-05-01 12:08 13.41130 -59.82271 22999 ft 426 kts 137°
2026-05-01 12:08 13.39018 -59.80138 22999 ft 426 kts 137°
2026-05-01 12:08 13.36902 -59.78000 23000 ft 426 kts 137°
2026-05-01 12:09 13.34786 -59.75862 22999 ft 426 kts 137°
2026-05-01 12:09 13.32699 -59.73758 22999 ft 426 kts 137°
2026-05-01 12:09 13.30584 -59.71626 23000 ft 426 kts 137°
2026-05-01 12:09 13.28467 -59.69491 22996 ft 426 kts 137°
2026-05-01 12:10 13.26324 -59.67333 23000 ft 426 kts 137°
2026-05-01 12:10 13.22123 -59.63109 23000 ft 425 kts 137°
2026-05-01 12:10 13.20011 -59.60978 23000 ft 425 kts 137°
2026-05-01 12:11 13.15789 -59.56719 23001 ft 426 kts 137°
2026-05-01 12:11 13.13673 -59.54590 23003 ft 426 kts 137°
2026-05-01 12:11 13.11557 -59.52462 23001 ft 426 kts 137°
2026-05-01 12:12 13.09439 -59.50334 23004 ft 426 kts 137°
2026-05-01 12:12 13.07312 -59.48208 23002 ft 426 kts 138°
2026-05-01 12:12 13.05140 -59.46140 23044 ft 427 kts 140°
2026-05-01 12:12 13.02903 -59.44125 23465 ft 429 kts 141°
2026-05-01 12:13 13.00630 -59.42135 23808 ft 432 kts 141°
2026-05-01 12:13 12.98325 -59.40138 24131 ft 434 kts 141°
2026-05-01 12:13 12.96016 -59.38131 24466 ft 436 kts 141°
2026-05-01 12:13 12.93707 -59.36103 24801 ft 438 kts 141°
2026-05-01 12:14 12.91396 -59.34054 25117 ft 440 kts 140°
2026-05-01 12:14 12.89085 -59.31989 25433 ft 441 kts 140°
2026-05-01 12:14 12.86798 -59.29941 25727 ft 444 kts 140°
2026-05-01 12:14 12.84466 -59.27854 26033 ft 445 kts 140°
2026-05-01 12:15 12.82125 -59.25764 26340 ft 447 kts 140°
2026-05-01 12:15 12.79771 -59.23669 26631 ft 449 kts 141°
2026-05-01 12:15 12.77405 -59.21563 26925 ft 451 kts 140°
2026-05-01 12:15 12.75030 -59.19450 27203 ft 453 kts 140°
2026-05-01 12:16 12.72649 -59.17332 27480 ft 455 kts 140°
2026-05-01 12:16 12.70250 -59.15200 27761 ft 457 kts 140°
2026-05-01 12:16 12.67843 -59.13063 28049 ft 458 kts 140°
2026-05-01 12:16 12.65427 -59.10918 28319 ft 460 kts 141°
2026-05-01 12:17 12.63035 -59.08798 28580 ft 462 kts 141°
2026-05-01 12:17 12.60601 -59.06638 28843 ft 463 kts 141°
2026-05-01 12:17 12.58164 -59.04475 29095 ft 465 kts 140°
2026-05-01 12:17 12.55714 -59.02296 29329 ft 467 kts 140°
2026-05-01 12:18 12.53257 -59.00109 29559 ft 469 kts 140°
2026-05-01 12:18 12.50789 -58.97914 29786 ft 471 kts 140°
2026-05-01 12:18 12.48308 -58.95710 30014 ft 473 kts 140°
2026-05-01 12:18 12.45823 -58.93504 30210 ft 474 kts 140°
2026-05-01 12:19 12.43325 -58.91288 30386 ft 475 kts 140°
2026-05-01 12:19 12.40820 -58.89066 30587 ft 477 kts 141°
2026-05-01 12:19 12.38340 -58.86870 30762 ft 478 kts 141°
2026-05-01 12:19 12.35821 -58.84642 30929 ft 479 kts 141°
2026-05-01 12:20 12.33300 -58.82412 31163 ft 479 kts 141°
2026-05-01 12:20 12.30781 -58.80183 31404 ft 479 kts 141°
2026-05-01 12:20 12.28264 -58.77955 31642 ft 478 kts 141°
2026-05-01 12:20 12.25748 -58.75727 31873 ft 478 kts 141°
2026-05-01 12:21 12.23225 -58.73497 32111 ft 478 kts 141°
2026-05-01 12:21 12.20708 -58.71274 32354 ft 478 kts 141°
2026-05-01 12:21 12.18197 -58.69055 32629 ft 477 kts 141°
2026-05-01 12:21 12.15687 -58.66837 32888 ft 476 kts 141°
2026-05-01 12:22 12.13187 -58.64625 33134 ft 476 kts 141°
2026-05-01 12:22 12.10683 -58.62408 33378 ft 476 kts 142°
2026-05-01 12:22 12.08183 -58.60195 33629 ft 475 kts 142°
2026-05-01 12:22 12.05682 -58.57988 33869 ft 475 kts 142°
2026-05-01 12:23 12.03179 -58.55780 34104 ft 475 kts 142°
2026-05-01 12:23 12.00684 -58.53575 34329 ft 474 kts 142°
2026-05-01 12:23 11.98186 -58.51368 34556 ft 474 kts 142°
2026-05-01 12:23 11.95728 -58.49197 34775 ft 473 kts 142°
2026-05-01 12:24 11.93235 -58.46997 34959 ft 473 kts 142°
2026-05-01 12:24 11.90742 -58.44802 35017 ft 473 kts 142°
2026-05-01 12:24 11.85748 -58.40413 35020 ft 473 kts 142°
2026-05-01 12:25 11.78289 -58.33836 35021 ft 472 kts 142°
2026-05-01 12:26 11.73306 -58.29453 35023 ft 472 kts 142°
2026-05-01 12:26 11.65840 -58.22886 35021 ft 472 kts 142°
2026-05-01 12:27 11.58419 -58.16343 35021 ft 472 kts 142°
2026-05-01 12:28 11.50944 -58.09780 35020 ft 472 kts 142°
2026-05-01 12:29 11.43463 -58.03212 35021 ft 473 kts 142°
2026-05-01 12:29 11.35981 -57.96649 35019 ft 473 kts 142°
2026-05-01 12:30 11.28494 -57.90091 35022 ft 473 kts 142°
2026-05-01 12:31 11.23537 -57.85742 35019 ft 473 kts 142°
2026-05-01 12:31 11.18544 -57.81371 35018 ft 473 kts 142°
2026-05-01 12:32 11.13541 -57.76994 35018 ft 474 kts 142°
2026-05-01 12:32 11.06037 -57.70435 35018 ft 474 kts 142°
2026-05-01 12:33 11.01040 -57.66058 35020 ft 474 kts 142°
2026-05-01 12:33 10.96039 -57.61683 35019 ft 474 kts 142°
2026-05-01 12:34 10.91032 -57.57315 35020 ft 474 kts 142°
2026-05-01 12:34 10.86025 -57.52942 35019 ft 474 kts 142°
2026-05-01 12:35 10.81023 -57.48575 35014 ft 474 kts 142°
2026-05-01 12:35 10.76013 -57.44208 35019 ft 474 kts 142°
2026-05-01 12:36 10.71046 -57.39882 35019 ft 474 kts 142°
2026-05-01 12:36 10.66037 -57.35521 35019 ft 474 kts 142°
2026-05-01 12:37 10.61030 -57.31161 35019 ft 474 kts 142°
2026-05-01 12:37 10.56019 -57.26795 35019 ft 474 kts 142°
2026-05-01 12:38 10.51012 -57.22432 35019 ft 474 kts 142°
2026-05-01 12:38 10.46005 -57.18073 35014 ft 474 kts 142°
2026-05-01 12:39 10.41007 -57.13726 35019 ft 473 kts 142°
2026-05-01 12:39 10.36004 -57.09382 35019 ft 474 kts 142°
2026-05-01 12:40 10.30989 -57.05029 35017 ft 474 kts 142°
2026-05-01 12:40 10.25975 -57.00672 35019 ft 474 kts 142°
2026-05-01 12:41 10.20969 -56.96318 35017 ft 474 kts 142°
2026-05-01 12:41 10.15952 -56.91974 35019 ft 474 kts 142°
2026-05-01 12:42 10.10964 -56.87650 35019 ft 474 kts 142°
2026-05-01 12:42 10.05952 -56.83302 35019 ft 474 kts 142°
2026-05-01 12:43 10.00925 -56.78949 35019 ft 475 kts 142°
2026-05-01 12:43 9.95897 -56.74599 35016 ft 475 kts 142°
2026-05-01 12:44 9.90878 -56.70244 35016 ft 475 kts 142°
2026-05-01 12:45 9.80844 -56.61566 35015 ft 475 kts 142°
2026-05-01 12:45 9.76628 -56.57925 35016 ft 476 kts 142°
2026-05-01 12:46 9.71588 -56.53567 35014 ft 476 kts 142°
2026-05-01 12:46 9.66584 -56.49235 35014 ft 476 kts 142°
2026-05-01 12:47 9.61544 -56.44876 35013 ft 476 kts 142°
2026-05-01 12:47 9.56504 -56.40525 35014 ft 476 kts 142°
2026-05-01 12:48 9.51462 -56.36171 35013 ft 476 kts 142°
2026-05-01 12:48 9.46417 -56.31827 35014 ft 476 kts 142°
2026-05-01 12:49 9.41379 -56.27486 35012 ft 475 kts 142°
2026-05-01 12:49 9.36349 -56.23144 35014 ft 475 kts 142°
2026-05-01 12:50 9.31347 -56.18839 35014 ft 475 kts 142°
2026-05-01 12:50 9.26313 -56.14499 35013 ft 475 kts 142°
2026-05-01 12:51 9.21284 -56.10163 35016 ft 475 kts 142°
2026-05-01 12:52 9.13735 -56.03670 35014 ft 475 kts 142°
2026-05-01 12:52 9.06180 -55.97179 35032 ft 475 kts 142°
2026-05-01 12:53 9.01148 -55.92857 35445 ft 474 kts 142°
2026-05-01 12:53 8.98633 -55.90696 35647 ft 474 kts 142°
2026-05-01 12:53 8.96126 -55.88541 35843 ft 473 kts 142°
2026-05-01 12:54 8.93620 -55.86385 36033 ft 473 kts 142°
2026-05-01 12:54 8.88612 -55.82082 36398 ft 472 kts 142°
2026-05-01 12:54 8.86114 -55.79935 36577 ft 472 kts 142°
2026-05-01 12:55 8.81113 -55.75645 36938 ft 471 kts 142°
2026-05-01 12:55 8.78651 -55.73531 37007 ft 471 kts 142°
2026-05-01 12:56 8.73674 -55.69253 37006 ft 469 kts 142°
2026-05-01 12:56 8.68703 -55.64994 37010 ft 468 kts 142°
2026-05-01 12:57 8.63727 -55.60740 37011 ft 468 kts 142°
2026-05-01 12:57 8.56273 -55.54355 37010 ft 468 kts 142°
2026-05-01 12:58 8.51300 -55.50088 37016 ft 469 kts 142°
2026-05-01 12:59 8.43849 -55.43698 37023 ft 469 kts 142°
2026-05-01 12:59 8.36379 -55.37321 37030 ft 468 kts 142°
2026-05-01 13:00 8.28932 -55.30956 37031 ft 467 kts 142°
2026-05-01 13:01 8.21529 -55.24620 37027 ft 467 kts 142°
2026-05-01 13:02 8.14102 -55.18281 37026 ft 466 kts 142°
2026-05-01 13:07 7.59974 -54.72136 37014 ft 463 kts 142°
2026-05-01 13:08 7.55087 -54.67966 37011 ft 463 kts 142°
2026-05-01 13:08 7.50162 -54.63784 37013 ft 463 kts 142°
2026-05-01 13:09 7.45228 -54.59604 37013 ft 463 kts 142°
2026-05-01 13:09 7.40303 -54.55415 37017 ft 463 kts 142°
2026-05-01 13:10 7.35391 -54.51233 37026 ft 462 kts 142°
2026-05-01 13:10 7.30480 -54.47056 37021 ft 461 kts 142°
2026-05-01 13:11 7.25602 -54.42912 37023 ft 461 kts 142°
2026-05-01 13:11 7.20702 -54.38749 37015 ft 461 kts 142°
2026-05-01 13:12 7.15801 -54.34587 37010 ft 461 kts 142°
2026-05-01 13:12 7.10899 -54.30428 37014 ft 460 kts 142°
2026-05-01 13:13 7.06002 -54.26279 37025 ft 459 kts 142°
2026-05-01 13:13 7.01127 -54.22146 37036 ft 457 kts 142°
2026-05-01 13:14 6.96271 -54.18028 37032 ft 455 kts 142°
2026-05-01 13:14 6.91455 -54.13951 37027 ft 455 kts 142°
2026-05-01 13:15 6.86618 -54.09856 37021 ft 454 kts 142°
2026-05-01 13:15 6.81750 -54.05815 37025 ft 453 kts 145°
2026-05-01 13:16 6.76658 -54.02099 37013 ft 452 kts 147°
2026-05-01 13:16 6.71490 -53.98508 37021 ft 451 kts 147°
2026-05-01 13:17 6.61333 -53.91058 37020 ft 452 kts 146°
2026-05-01 13:18 6.53748 -53.85434 37019 ft 451 kts 146°
2026-05-01 13:18 6.48674 -53.81706 37016 ft 451 kts 146°
2026-05-01 13:19 6.43604 -53.77979 37014 ft 451 kts 146°
2026-05-01 13:20 6.36015 -53.72391 37017 ft 450 kts 146°
2026-05-01 13:20 6.30988 -53.68691 37017 ft 450 kts 146°
2026-05-01 13:21 6.25924 -53.64972 36603 ft 453 kts 146°
2026-05-01 13:21 6.23349 -53.63082 35591 ft 461 kts 146°
2026-05-01 13:21 6.20748 -53.61171 34804 ft 464 kts 145°
2026-05-01 13:21 6.18123 -53.59247 34121 ft 466 kts 145°
2026-05-01 13:22 6.15516 -53.57330 33522 ft 463 kts 144°
2026-05-01 13:22 6.12925 -53.55423 32941 ft 460 kts 144°
2026-05-01 13:22 6.10382 -53.53553 32364 ft 457 kts 143°
2026-05-01 13:22 6.07823 -53.51674 31796 ft 454 kts 143°
2026-05-01 13:23 6.05282 -53.49805 31224 ft 451 kts 142°
2026-05-01 13:23 6.02753 -53.47945 30665 ft 450 kts 142°
2026-05-01 13:23 6.00230 -53.46092 30104 ft 448 kts 142°
2026-05-01 13:23 5.97722 -53.44249 29494 ft 445 kts 142°
2026-05-01 13:24 5.95231 -53.42422 28959 ft 441 kts 142°
2026-05-01 13:24 5.92769 -53.40618 28423 ft 436 kts 142°
2026-05-01 13:24 5.90325 -53.38831 27900 ft 432 kts 142°
2026-05-01 13:25 5.85514 -53.35303 26896 ft 424 kts 142°
2026-05-01 13:25 5.83144 -53.33564 26410 ft 420 kts 142°
2026-05-01 13:25 5.80795 -53.31837 25928 ft 416 kts 142°
2026-05-01 13:25 5.78469 -53.30129 25448 ft 412 kts 142°
2026-05-01 13:26 5.76166 -53.28435 24975 ft 409 kts 142°
2026-05-01 13:26 5.73879 -53.26753 24491 ft 406 kts 142°
2026-05-01 13:26 5.71609 -53.25085 24008 ft 403 kts 142°
2026-05-01 13:26 5.69347 -53.23426 23503 ft 401 kts 142°
2026-05-01 13:27 5.67094 -53.21779 22954 ft 398 kts 142°
2026-05-01 13:27 5.64863 -53.20150 22464 ft 395 kts 142°
2026-05-01 13:27 5.60485 -53.16946 21493 ft 389 kts 142°
2026-05-01 13:28 5.56139 -53.13758 20537 ft 384 kts 142°
2026-05-01 13:28 5.53995 -53.12184 20066 ft 382 kts 142°
2026-05-01 13:29 5.49736 -53.09064 19213 ft 375 kts 142°
2026-05-01 13:29 5.45534 -53.05987 18354 ft 370 kts 142°
2026-05-01 13:30 5.37300 -52.99955 16471 ft 360 kts 141°
2026-05-01 13:31 5.33363 -52.97077 15443 ft 337 kts 141°
2026-05-01 13:31 5.27877 -52.93060 14253 ft 322 kts 141°
2026-05-01 13:32 5.24273 -52.90412 13424 ft 323 kts 141°
2026-05-01 13:33 5.18854 -52.86450 12182 ft 320 kts 141°
2026-05-01 13:33 5.15258 -52.83822 11338 ft 319 kts 141°
2026-05-01 13:34 5.11683 -52.81201 10485 ft 318 kts 141°
2026-05-01 13:34 5.08745 -52.79054 10037 ft 307 kts 141°
2026-05-01 13:35 5.05400 -52.76615 9483 ft 295 kts 141°
2026-05-01 13:35 5.03223 -52.75023 9056 ft 289 kts 141°
2026-05-01 13:35 5.00513 -52.73041 8427 ft 286 kts 141°
2026-05-01 13:36 4.98912 -52.71865 8045 ft 284 kts 141°
2026-05-01 13:36 4.97322 -52.70697 7666 ft 283 kts 141°
2026-05-01 13:36 4.94185 -52.68405 6443 ft 276 kts 141°
2026-05-01 13:37 4.92643 -52.67283 5908 ft 271 kts 141°
2026-05-01 13:37 4.91125 -52.66177 5489 ft 268 kts 141°
2026-05-01 13:37 4.89622 -52.65079 5084 ft 266 kts 141°
2026-05-01 13:37 4.88130 -52.63987 4683 ft 266 kts 140°
2026-05-01 13:38 4.85155 -52.61813 3964 ft 266 kts 140°
2026-05-01 13:38 4.83666 -52.60727 3835 ft 257 kts 141°
2026-05-01 13:38 4.82256 -52.59700 3717 ft 250 kts 141°
2026-05-01 13:39 4.80857 -52.58706 3591 ft 243 kts 147°
2026-05-01 13:39 4.79363 -52.57980 3441 ft 234 kts 152°
2026-05-01 13:39 4.77883 -52.57302 3057 ft 236 kts 152°
2026-05-01 13:39 4.76398 -52.56622 2707 ft 233 kts 152°
2026-05-01 13:40 4.74980 -52.55854 2338 ft 230 kts 136°
2026-05-01 13:40 4.74158 -52.54543 2078 ft 221 kts 101°
2026-05-01 13:40 4.74220 -52.53042 2052 ft 218 kts 70°
2026-05-01 13:40 4.74862 -52.51721 2053 ft 204 kts 64°
2026-05-01 13:41 4.75420 -52.50471 2046 ft 189 kts 67°
2026-05-01 13:41 4.75939 -52.49297 2080 ft 180 kts 66°
2026-05-01 13:41 4.76452 -52.48169 2064 ft 178 kts 67°
2026-05-01 13:41 4.76956 -52.47070 1971 ft 169 kts 65°
2026-05-01 13:42 4.77432 -52.46037 1814 ft 153 kts 66°
2026-05-01 13:42 4.77858 -52.45114 1633 ft 141 kts 66°
2026-05-01 13:42 4.78268 -52.44225 1439 ft 139 kts 66°
2026-05-01 13:42 4.78670 -52.43352 1276 ft 137 kts 67°
2026-05-01 13:43 4.79063 -52.42499 1105 ft 138 kts 65°
2026-05-01 13:43 4.79465 -52.41627 934 ft 137 kts 65°
2026-05-01 13:43 4.79855 -52.40746 690 ft 138 kts 64°
2026-05-01 13:43 4.80269 -52.39873 642 ft 142 kts 65°
2026-05-01 13:44 4.80663 -52.38985 413 ft 136 kts 64°
2026-05-01 13:44 4.81071 -52.38136 228 ft 134 kts 65°
2026-05-01 13:44 4.81457 -52.37282 46 ft 134 kts 65°
2026-05-01 13:44 4.81799 -52.36530 28 ft 102 kts 65°
2026-05-01 13:45 4.82000 -52.36104 28 ft 31 kts 64°
2026-05-01 13:45 4.82076 -52.35979 29 ft 12 kts 28°
2026-05-01 13:45 4.82132 -52.35989 30 ft 7 kts 317°
2026-05-01 13:45 4.82156 -52.36019 30 ft 5 kts 304°
2026-05-01 13:46 4.82174 -52.36046 30 ft 4 kts 304°
2026-05-01 13:46 4.82185 -52.36076 30 ft 7 kts 275°
2026-05-01 13:46 4.82161 -52.36142 29 ft 7 kts 243°
2026-05-01 13:46 4.82146 -52.36180 29 ft 5 kts 264°
2026-05-01 13:47 4.82160 -52.36207 29 ft 4 kts 308°
2026-05-01 13:47 4.82174 -52.36225 29 ft 3 kts 309°
2026-05-01 13:47 4.82183 -52.36236 29 ft 2 kts 307°
2026-05-01 13:47 4.82195 -52.36252 29 ft 2 kts 306°
2026-05-01 13:48 4.82197 -52.36255 29 ft 0 kts 306°